Date String (YYYY-MM-DD hh:mm:ss) UTC,Instrument flags,Ambient pressure (hPa),Sample flow (lpm),Bypass flow (lpm),Sample temperature (°C),Ambient temperature (°C),ASC tube jacket temperature (°C),LED temperature (°C),Box temperature (°C),Sample RH (%),Span deviation,Mass concentration (μg/m³),Mass concentration (μg/m³),Mass concentration (μg/m³)
DateTimeUTC,F1_M11,P_M11,Q1_M11,Q2_M11,T1_M11,T2_M11,T3_M11,T4_M11,T5_M11,U1_M11,ZSPAN_M11,X0_M11,X2_M11,X1_M11
2022-10-24 15:00:00,,0820.9,4.98,0.00,22.3,20.9,00.0,31.1,24.2,12.4,0000.0,0007.82,0002.85,0002.50
2022-10-24 15:01:00,,0820.9,5.00,0.00,22.3,20.9,00.0,31.1,24.2,13.2,0000.0,0007.93,0002.95,0002.54
2022-10-24 15:02:00,,0820.9,5.01,0.00,22.3,21.0,00.0,31.2,24.2,12.7,0000.0,0008.06,0003.04,0002.58
2022-10-24 15:03:00,,0820.9,5.00,0.00,22.3,21.0,00.0,31.2,24.2,10.8,0000.0,0008.10,0003.09,0002.59
2022-10-24 15:04:00,,0821.0,5.00,0.00,22.3,21.1,00.0,31.2,24.3,10.9,0000.0,0008.17,0003.14,0002.60
2022-10-24 15:05:00,,0820.9,5.00,0.00,22.3,21.1,00.0,31.2,24.3,13.2,0000.0,0008.24,0003.18,0002.64
2022-10-24 15:06:00,,0820.9,5.00,0.00,22.4,21.1,00.0,31.2,24.3,13.7,0000.0,0007.86,0003.19,0002.67
2022-10-24 15:07:00,,0820.9,5.00,0.00,22.4,21.1,00.0,31.2,24.3,13.5,0000.0,0007.21,0003.19,0002.71
2022-10-24 15:08:00,,0821.0,5.00,0.00,22.4,21.2,00.0,31.2,24.3,11.4,0000.0,0006.65,0003.19,0002.69
2022-10-24 15:09:00,,0821.0,5.00,0.00,22.4,21.2,00.0,31.2,24.4,12.2,0000.0,0005.26,0003.19,0002.69
2022-10-24 15:10:00,,0821.0,5.00,0.00,22.4,21.2,00.0,31.2,24.4,12.2,0000.0,0006.22,0003.19,0002.69
2022-10-24 15:11:00,,0821.0,5.00,0.00,22.4,21.2,00.0,31.2,24.4,13.1,0000.0,0006.20,0003.19,0002.71
2022-10-24 15:12:00,,0821.0,5.00,0.00,22.5,21.2,00.0,31.2,24.4,11.9,0000.0,0006.26,0003.19,0002.72
2022-10-24 15:13:00,,0821.0,5.00,0.00,22.5,21.3,00.0,31.3,24.4,11.1,0000.0,0006.21,0003.16,0002.70
2022-10-24 15:14:00,,0821.0,5.00,0.00,22.5,21.3,00.0,31.3,24.4,10.2,0000.0,0006.21,0003.16,0002.71
2022-10-24 15:15:00,,0821.1,5.00,0.00,22.5,21.3,00.0,31.3,24.5,11.5,0000.0,0007.38,0003.15,0002.72
2022-10-24 15:16:00,,0821.0,5.00,0.00,22.5,21.3,00.0,31.3,24.5,11.3,0000.0,0008.04,0003.15,0002.72
2022-10-24 15:17:00,,0821.0,5.00,0.00,22.5,21.2,00.0,31.3,24.4,09.1,0000.0,0008.56,0003.12,0002.69
2022-10-24 15:18:00,,0821.0,4.99,0.00,22.5,21.1,00.0,31.3,24.4,10.6,0000.0,0008.51,0003.06,0002.66
2022-10-24 15:19:00,,0821.0,5.01,0.00,22.5,21.1,00.0,31.3,24.4,10.9,0000.0,0008.54,0003.06,0002.66
2022-10-24 15:20:00,,0820.9,5.00,0.00,22.5,21.0,00.0,31.3,24.4,11.6,0000.0,0008.83,0003.08,0002.69
2022-10-24 15:21:00,,0821.0,5.00,0.00,22.5,21.1,00.0,31.3,24.4,12.1,0000.0,0008.10,0003.06,0002.68
2022-10-24 15:22:00,,0821.0,5.00,0.00,22.5,21.1,00.0,31.3,24.4,12.5,0000.0,0008.45,0003.08,0002.70
2022-10-24 15:23:00,,0820.9,5.00,0.00,22.5,21.2,00.0,31.3,24.5,12.9,0000.0,0008.81,0003.09,0002.71
2022-10-24 15:24:00,,0820.9,4.98,0.00,22.5,21.2,00.0,31.3,24.5,13.0,0000.0,0008.77,0003.13,0002.75
2022-10-24 15:25:00,,0820.9,5.02,0.00,22.5,21.3,00.0,31.3,24.5,12.7,0000.0,0008.86,0003.15,0002.78
2022-10-24 15:26:00,,0820.9,4.99,0.00,22.5,21.3,00.0,31.3,24.5,12.7,0000.0,0008.92,0003.16,0002.81
2022-10-24 15:27:00,,0820.9,5.00,0.00,22.6,21.3,00.0,31.3,24.6,12.7,0000.0,0008.34,0003.17,0002.83
2022-10-24 15:28:00,,0820.9,5.00,0.00,22.6,21.3,00.0,31.3,24.6,12.2,0000.0,0007.67,0003.18,0002.85
2022-10-24 15:29:00,,0820.9,5.00,0.00,22.6,21.4,00.0,31.3,24.6,11.7,0000.0,0008.09,0003.22,0002.89
2022-10-24 15:30:00,,0820.9,5.00,0.00,22.6,21.4,00.0,31.3,24.6,10.0,0000.0,0008.26,0003.18,0002.85
2022-10-24 15:31:00,,0820.9,5.00,0.00,22.6,21.3,00.0,31.4,24.6,10.0,0000.0,0007.93,0003.15,0002.81
2022-10-24 15:32:00,,0820.9,5.00,0.00,22.6,21.3,00.0,31.4,24.6,10.0,0000.0,0007.69,0003.12,0002.77
2022-10-24 15:33:00,,0820.9,5.02,0.00,22.6,21.3,00.0,31.4,24.5,10.2,0000.0,0007.30,0003.09,0002.74
2022-10-24 15:34:00,,0820.9,5.00,0.00,22.6,21.3,00.0,31.4,24.5,10.1,0000.0,0006.46,0003.00,0002.68
2022-10-24 15:35:00,,0820.9,4.98,0.00,22.6,21.3,00.0,31.4,24.5,10.2,0000.0,0006.37,0002.94,0002.63
2022-10-24 15:36:00,,0820.8,5.02,0.00,22.6,21.4,00.0,31.4,24.6,10.3,0000.0,0006.18,0002.87,0002.58
2022-10-24 15:37:00,,0820.8,4.98,0.00,22.6,21.4,00.0,31.4,24.6,10.4,0000.0,0004.98,0002.80,0002.53
2022-10-24 15:38:00,,0820.9,5.02,0.00,22.6,21.4,00.0,31.4,24.6,10.5,0000.0,0005.06,0002.72,0002.47
2022-10-24 15:39:00,,0820.8,5.00,0.00,22.6,21.4,00.0,31.4,24.6,10.3,0000.0,0005.05,0002.70,0002.43
2022-10-24 15:40:00,,0820.9,4.98,0.00,22.7,21.4,00.0,31.4,24.6,10.4,0000.0,0004.28,0002.65,0002.39
2022-10-24 15:41:00,,0820.9,5.02,0.00,22.7,21.4,00.0,31.4,24.6,10.7,0000.0,0003.90,0002.66,0002.40
2022-10-24 15:42:00,,0820.9,5.00,0.00,22.7,21.5,00.0,31.4,24.7,10.8,0000.0,0004.10,0002.74,0002.43
2022-10-24 15:43:00,,0820.9,4.98,0.00,22.7,21.5,00.0,31.5,24.7,11.2,0000.0,0004.62,0002.79,0002.44
2022-10-24 15:44:00,,0820.9,5.01,0.00,22.7,21.5,00.0,31.5,24.7,12.6,0000.0,0004.46,0002.78,0002.47
2022-10-24 15:45:00,,0820.9,5.01,0.00,22.7,21.5,00.0,31.5,24.7,12.7,0000.0,0004.58,0002.87,0002.53
2022-10-24 15:46:00,,0820.9,5.00,0.00,22.8,21.6,00.0,31.5,24.8,12.2,0000.0,0004.71,0002.93,0002.58
2022-10-24 15:47:00,,0820.8,4.98,0.00,22.8,21.6,00.0,31.5,24.8,12.0,0000.0,0005.00,0003.02,0002.62
2022-10-24 15:48:00,,0820.8,5.00,0.00,22.8,21.6,00.0,31.5,24.8,12.1,0000.0,0005.55,0003.08,0002.64
2022-10-24 15:49:00,,0820.8,5.00,0.00,22.8,21.6,00.0,31.5,24.8,13.3,0000.0,0006.08,0003.13,0002.69
2022-10-24 15:50:00,,0820.8,5.00,0.00,22.8,21.6,00.0,31.6,24.8,13.6,0000.0,0007.05,0003.18,0002.77
2022-10-24 15:51:00,,0820.8,5.00,0.00,22.8,21.7,00.0,31.6,24.8,13.8,0000.0,0007.56,0003.23,0002.85
2022-10-24 15:52:00,,0820.9,5.00,0.00,22.8,21.7,00.0,31.6,24.8,13.9,0000.0,0007.69,0003.27,0002.92
2022-10-24 15:53:00,,0820.8,5.00,0.00,22.9,21.7,00.0,31.6,24.8,13.9,0000.0,0008.08,0003.32,0003.00
2022-10-24 15:54:00,,0820.8,5.00,0.00,22.9,21.7,00.0,31.6,24.9,13.6,0000.0,0008.47,0003.35,0003.07
2022-10-24 15:55:00,,0820.9,5.00,0.00,22.9,21.7,00.0,31.6,24.9,13.6,0000.0,0008.48,0003.39,0003.12
2022-10-24 15:56:00,,0820.8,5.00,0.00,22.9,21.8,00.0,31.7,24.9,13.1,0000.0,0008.49,0003.40,0003.13
2022-10-24 15:57:00,,0820.8,5.02,0.00,22.9,21.8,00.0,31.7,24.9,13.0,0000.0,0008.57,0003.43,0003.14
2022-10-24 15:58:00,,0820.8,4.98,0.00,23.0,21.8,00.0,31.7,24.9,12.6,0000.0,0008.63,0003.46,0003.15
2022-10-24 15:59:00,,0820.8,5.02,0.00,23.0,21.8,00.0,31.7,24.9,12.1,0000.0,0008.48,0003.44,0003.16
